Terminal Aerodrome Forecast
Issued by NWS Omaha/Valley, NE

Home | Current Version | Previous Version | Graphics & Text | Print | Product List | Glossary On
Versions: 1 2 3 4 5 6 7 8 9 10 11 12 13 14 15 16 17 18 19 20 21 22 23 24 25 26 27 28 29 30 31 32 33 34 35 36 37 38 39 40 41 42 43 44
000
FTUS43 KOAX 141043 AAB
TAFOFK
TAF AMD
KOFK 141043Z 1411/1506 34005KT P6SM BKN040
      TEMPO 1411/1414 BKN025
     FM141600 31007KT P6SM OVC040
      TEMPO 1418/1422 4SM -RA OVC025
     FM150000 33008KT P6SM BKN040=

USA.gov is the U.S. government's official web portal to all federal, state and local government web resources and services.